User: anonymous   Login
Location: Caltech
(34.1382°N, 118.1253°W)
Time: 09:29:56
(UTC-07:00)
Language:

SO-67 - Orbit

View from above orbital plane
View from above orbital plane
View from above satellite
View from above satellite

Ground track
Ground track

The orbit data is extracted from the following two-line orbital elements,

1 35870U 09049F   17147.90112566 +.00004762 +00000-0 +77126-4 0  9991
2 35870 097.1024 164.8021 0003900 116.4876 004.5766 15.53276893430076
Epoch (UTC): 27 May 2017 21:37:37
Eccentricity: 0.0003900
inclination: 97.1024°
perigee height: 404 km
apogee height: 410 km
right ascension of ascending node: 164.8021°
argument of perigee: 116.4876°
revolutions per day: 15.53276893
mean anomaly at epoch: 4.5766°
orbit number at epoch: 43007

The dashed part of the orbit path shows where the satellite is in the earth's shadow,  

DLR